www.pogodaiklimat.ru

Погода и климат >> Архив погоды >> Мексика >> Монтеррей


ПОГОДА в Монтеррее

  • Прогноз погоды в Монтеррее
  • Монитор погоды в Монтеррее

АРХИВ ПОГОДЫ в Монтеррее

Время (UTC), дата Ветер
(напр.,м/с)
 
Видим.   Явления Облачность Т
(С)
Тd
(С)
f
(%)
Тe
(С)
Тes
(С)
Комфортность P
(гПа)
Po
(гПа)
Тmin
(С)
Tmax
(С)
R
(мм)
R24
(мм)
S
(см)
09 19.03 СЗ 1 1000 м слаб. морось 10/10 270 м
[St]
+10.0 +7.8 86 +10 +10 1023.2 964.0 0.0
12 19.03 Ю 1 1000 м слаб. морось 10/10 270 м
[St]
+10.4 +7.6 83 +10 +10 1023.3 964.0 +9.2 +12.0 0.5
15 19.03 Ю 1 1000 м слаб. морось 10/10 210 м
[Frnb]
+12.2 +10.1 87 +12 +12 1023.7 964.5 0.0
18 19.03 В 3 2000 м мгла {туман} 10/10 570 м
[Sc]
+15.6 +12.3 81 +15 +15 1023.8 964.7 +9.2 +17.0
21 19.03 В 3 4000 м мгла {туман} 10/10 570 м
[Sc]
+16.2 +11.5 74 +16 +16 1020.7 962.0
00 20.03 В 3 3000 м мгла {туман} 10/10 660 м
[Sc]
+16.4 +11.0 70 +16 +16 1019.6 961.4 +9.2 +18.0
03 20.03 ЮЗ 1 1000 м мгла {туман} 10/10 540 м
[Sc]
+15.4 +11.0 75 +16 +16 1020.5 962.5
09 20.03 СВ 2 1000 м дым 10/10 450 м
[Sc]
+14.2 +10.4 78 +14 +14 1019.9 961.8
12 20.03 ЮВ 1 1000 м дым 10/10 330 м
[Sc]
+13.8 +11.1 84 +14 +14 1019.7 961.5 +13.0 +18.0
15 20.03 З 1 1000 м мгла {туман} 10/10 120 м
[Frnb]
+14.6 +13.0 90 +15 +15 1021.5 963.1
18 20.03 В 2 1000 м мгла {туман} 10/10 570 м
[Sc]
+16.4 +12.8 79 +17 +17 1022.0 963.6 +13.0 +17.8
21 20.03 В 2 1000 м мгла {туман} 10/10 800 м
[Sc]
+19.6 +13.2 67 +22 +22 комфорт 1019.9 961.9
00 21.03 В 3 1000 м мгла {туман} 10/10 700 м
[Sc]
+19.2 +13.5 70 +21 +21 комфорт 1019.7 962.0 +13.0 +21.0
09 21.03 ЮВ 2 1000 м слаб. морось 10/10 240 м
[St]
+15.2 +13.2 88 +15 +15 1020.7 963.0 2
12 21.03 В 2 500 м слаб. морось 10/10 330 м
[Sc]
+14.8 +12.1 84 +14 +14 1022.0 964.0 +14.0 +21.0 0.2
21 21.03 В 3 800 м слаб. морось 10/10 90 м
[Frnb]
+16.6 +16.0 96 +16 +16 1020.1 962.0 0.2
00 22.03 В 4 800 м слаб. морось 10/10 30 м
[Frnb]
+15.6 +15.3 98 +15 +15 1018.9 961.0 +14.0 +18.0 2
09 22.03 В 1 500 м слаб. морось 10/10 180 м
[St]
+15.0 +13.7 92 +15 +15 1016.9 959.0
12 22.03 СВ 1 500 м дым 10/10 120 м
[Sc]
+15.0 +14.0 94 +15 +15 1017.0 959.0 +14.0 +18.0 0.0
15 22.03 В 1 700 м мгла {туман} 10/10 90 м
[Frnb]
+15.8 +15.2 96 +16 +16 1018.8 960.7
18 22.03 В 2 1000 м мгла {туман} 10/10 210 м
[Frnb]
+18.0 +15.8 87 +19 +19 1019.9 961.8 +14.0 +19.0
03 23.03 В 1 1000 м мгла {туман} 10/10 330 м
[Sc]
+18.6 +15.8 84 +21 +21 комфорт 1013.6 956.5
06 23.03 СВ 1 1000 м слаб. морось 10/10 120 м
[Frnb]
+18.0 +17.1 94 +19 +19 1014.1 957.1 +14.0 +22.0 0.2
09 23.03 СВ 1 1000 м слаб. морось 10/10 90 м
[St]
+17.6 +17.0 96 +19 +19 1014.1 956.9 0.0
12 23.03 В 1 1000 м дым 10/10 120 м
[St]
+16.8 +15.9 94 +18 +18 1015.1 957.8 +16.0 +22.0 0.0
15 23.03 В 1 700 м {туман} туман 10/10 150 м
[Frnb]
+18.0 +16.0 88 +19 +19 1016.1 958.6
18 23.03 В 3 800 м мгла {туман} 1/1 1050 м
[Sc]
+25.4 +16.8 59 +29 +43 душно 1015.3 958.1 +16.0 +26.2
21 23.03 В 5 2000 м мгла {туман} 1/1 1110 м
[Sc]
+27.6 +18.7 58 +33 +39 очень
душно
1012.9 956.2
00 24.03 В 5 5000 м дым {туман} 1/1 1050 м
[Sc]
+25.4 +16.8 59 +29 +29 душно 1012.6 956.3 +16.0 +28.8
03 24.03 В 2 1000 м дым ясно +23.4 +17.5 69 +29 +29 душно 1014.0 958.0
09 24.03 СВ 1 1000 м дым ясно +18.8 +17.6 93 +21 +21 комфорт 1013.9 957.5
12 24.03 СЗ 1 500 м дым 10/10 120 м
[St]
+18.6 +17.7 95 +21 +21 комфорт 1013.7 957.0 +18.0 +28.8
15 24.03 З 1 500 м {туман} туман 10/10 180 м
[Frnb]
+19.0 +17.5 91 +22 +22 комфорт 1015.9 958.9
18 24.03 В 2 1000 м мгла {туман} ясно +23.0 +18.0 73 +28 +47 душно 1016.0 959.0 +18.0 +25.0
21 24.03 СВ 3 2000 м мгла {туман} ясно +28.4 +18.6 55 +33 +44 очень
душно
1013.0 956.5
00 25.03 В 5 4000 м мгла {туман} ясно +28.2 +18.1 54 +33 +33 очень
душно
1011.7 955.7 +18.0 +30.2
03 25.03 В 1 1000 м дым ясно +26.0 +17.8 61 +30 +30 душно 1012.7 957.1
06 25.03 В 1 1000 м дым 3/3 360 м
[Sc]
+21.8 +18.9 84 +27 +27 душно 1013.7 958.0 +18.0 +30.2
21 25.03 В 5 1000 м мгла {туман} 6/6 1080 м
[Sc]
+29.2 +20.5 59 +36 +39 очень
душно
1014.5 958.4
00 26.03 В 5 3000 м мгла {туман} 9/9 800 м
[Sc]
+25.8 +19.2 67 +31 +31 очень
душно
1015.5 959.5 +18.6 +30.2
03 26.03 В 2 1000 м мгла {туман} 8/8 450 м
[Sc]
+23.6 +19.9 80 +29 +29 душно 1016.7 960.8

 

Местоположение метеостанции Монтеррей (Мексика): широта 25.73 долгота -100.30 высота над уровнем моря 515 м.

В архиве по умолчанию представлена погода в Монтеррее за последнюю неделю. Архивные данные за месяц целиком и за предыдущие месяцы, начиная с января 2011 года, Вы можете получить, выбрав интересующий диапазон дат из раскрывающегося списка и нажав кнопку "Ввод!".


*Определитесь, кто Вы:
робот инопланетянин человек

Внимание! Время в таблицах - всемирное. Для получения местного времени необходимо прибавить поправку, которая равна -6 ч.

Смотрите также архив погоды в соседних городах и на ближайших метеорологических станциях:

Погода в Солтильо (Мексика) (81 км)
Погода в Монклове (Мексика) (168 км)
Погода в Сьюдад-Виктории (Мексика) (252 км)
Погода в Сото ла Марина (Мексика) (304 км)
Погода в Торреоне (Мексика) (312 км)
Погода в Пьедрас-Неграс (Мексика) (331 км)
Погода в Сакатекасе (Мексика) (397 км)
Погода в Сан-Луис-Потоси (Мексика) (400 км)
Погода в Сомбререте (Мексика) (407 км)
Погода в Рио-Верде (Мексика) (424 км)

Пояснения к столбцам:

Ветер - указаны скорость ветра в м/с - средняя за 10 мин, порывы в срок и между сроками (в фигурных скобках) и направление, откуда дует ветер: С - северный, СВ - северо-восточный, В - восточный, ЮВ - юго-восточный, Ю - южный, ЮЗ - юго-западный, З - западный, СЗ - северо-западный.
Видимость - горизонтальная дальность видимости в метрах или километрах. При видимости от 1 до 10 км при отсутствии осадков обычно наблюдается дымка, при ухудшении видимости до 1 км и менее - туман. В сухую погоду видимость может ухудшаться дымом, пылью или мглою.
Явления - указаны атмосферные явления, наблюдавшиеся в срок или в последний час перед сроком; фигурными скобками обозначены явления, наблюдавшиеся между сроками (за 1-3 часа до срока); квадратными скобками обозначены град или гололедные отложения с указанием их диаметра в мм.
Облачность - указаны через наклонную черту общая и нижняя облачность в баллах и высота нижней границы облаков в метрах; квадратными скобками обозначены формы облаков: Ci - перистые, Cs - перисто-слоистые, Cc - перисто-кучевые, Ac - высококучевые, As - высокослоистые, Sc - слоисто-кучевые, Ns - слоисто-дождевые, Cu - кучевые, Cb - кучево-дождевые. Подробнее классификацию облаков см. в Атласе облаков (PDF).
T - Температура воздуха - температура, измеренная на высоте 2 м над землей.
Td - Температура точки росы - температура, при понижении до которой содержащийся в воздухе водяной пар достигнет насыщения.
f - Относительная влажность воздуха - влажноcть воздуха, измеренная на высоте 2 м над землей.
Te - Эффективная температура - температура, которую ощущает одетый по сезону человек в тени. Характеристика душности погоды. При расчете учитывается влияние влажности воздуха и скорости ветра на теплоощущения человека.
Tes - Эффективная температура на солнце - температура, которую ощущает человек, с поправкой на солнечный нагрев. Характеристика знойности погоды. Зависит от высоты солнца над горизонтом, облачности и скорости ветра. Ночью, в пасмурную погоду, а также при ветре 12 м/с и более поправка равна нулю.
P - Атмосферное давление - приведенное к уровню моря атмосферное давление.
Po - Атмосферное давление - измеренное на уровне метеостанции атмосферное давление.
Tmin - Минимальная температура - минимум температуры воздуха на высоте 2 м над землей.
Tmax - Максимальная температура - максимум температуры воздуха на высоте 2 м над землей.
R - Количество осадков - Количество выпавших осадков за период времени, мм. При наведении курсора мыши на число - период времени, за который выпало указанное количество осадков.
R24 - Количество осадков - Количество выпавших осадков за 24 часа, мм.
S - Снежный покров - Высота снежного покрова, см. При наведении курсора мыши на число - состояние снежного покрова и степень покрытия местности в баллах.